time, Switch, Flow(0), Analog(2)
yyyy/mm/dd HH:MM:SS.fff, True=FILTERED|False=TOTAL, L/min, V
2023/06/22 08:00:02.149, True, 4.380, 0.127337
2023/06/22 08:00:02.653, True, 4.312, 0.127489
2023/06/22 08:00:03.157, True, 4.309, 0.127108
2023/06/22 08:00:03.653, True, 3.707, 0.127184
2023/06/22 08:00:04.157, True, 2.322, 0.128481
2023/06/22 08:00:04.661, True, 1.989, 0.127413
2023/06/22 08:00:05.157, True, 1.685, 0.124971
2023/06/22 08:00:05.661, True, 1.658, 0.126497
2023/06/22 08:00:06.165, True, 1.658, 0.126421
2023/06/22 08:00:06.661, True, 1.348, 0.125963
2023/06/22 08:00:07.165, True, 1.658, 0.127947
2023/06/22 08:00:07.668, True, 1.658, 0.126802
2023/06/22 08:00:08.173, True, 1.991, 0.127718
2023/06/22 08:00:08.669, True, 1.684, 0.127184
2023/06/22 08:00:09.173, True, 1.658, 0.128634
2023/06/22 08:00:09.677, True, 1.661, 0.127260
2023/06/22 08:00:10.173, True, 1.683, 0.127337
2023/06/22 08:00:10.677, True, 1.657, 0.125734
2023/06/22 08:00:11.181, True, 1.659, 0.128405
2023/06/22 08:00:11.677, True, 1.684, 0.127031
2023/06/22 08:00:12.181, True, 1.658, 0.127413
2023/06/22 08:00:12.677, True, 1.685, 0.125734
2023/06/22 08:00:13.181, True, 1.993, 0.128099
2023/06/22 08:00:13.685, True, 1.659, 0.126802
2023/06/22 08:00:14.189, True, 1.655, 0.127871
2023/06/22 08:00:14.685, True, 1.686, 0.126726
2023/06/22 08:00:15.189, True, 1.657, 0.125048
2023/06/22 08:00:15.693, True, 1.658, 0.125582
2023/06/22 08:00:16.189, True, 1.685, 0.128862
2023/06/22 08:00:16.693, True, 1.659, 0.126726
2023/06/22 08:00:17.197, True, 1.658, 0.126955
2023/06/22 08:00:17.693, True, 1.685, 0.127489
2023/06/22 08:00:18.197, True, 1.657, 0.126040
2023/06/22 08:00:18.701, True, 1.660, 0.128252
2023/06/22 08:00:19.197, True, 1.686, 0.124590
2023/06/22 08:00:19.701, True, 1.656, 0.125963
2023/06/22 08:00:20.205, True, 1.987, 0.126497
2023/06/22 08:00:20.709, True, 1.658, 0.125658
2023/06/22 08:00:21.205, True, 1.685, 0.127871
2023/06/22 08:00:21.709, True, 1.658, 0.126955
2023/06/22 08:00:22.205, True, 1.684, 0.128405
2023/06/22 08:00:22.709, True, 1.658, 0.127413
2023/06/22 08:00:23.213, True, 1.991, 0.125887
2023/06/22 08:00:23.709, True, 1.684, 0.126345
2023/06/22 08:00:24.213, True, 1.657, 0.128023
2023/06/22 08:00:24.717, True, 1.658, 0.126650
2023/06/22 08:00:25.221, True, 1.660, 0.125429
2023/06/22 08:00:25.717, True, 1.686, 0.127718
2023/06/22 08:00:26.221, True, 1.657, 0.127413
2023/06/22 08:00:26.725, True, 1.656, 0.128786
2023/06/22 08:00:27.221, True, 1.685, 0.124208
2023/06/22 08:00:27.725, True, 1.328, 0.127642
2023/06/22 08:00:28.229, True, 1.656, 0.126268
2023/06/22 08:00:28.725, True, 1.684, 0.129244
2023/06/22 08:00:29.229, True, 1.658, 0.127031
2023/06/22 08:00:29.733, True, 1.658, 0.125429
2023/06/22 08:00:30.229, True, 1.685, 0.123522
2023/06/22 08:00:30.733, True, 1.658, 0.128786
2023/06/22 08:00:31.237, True, 1.990, 0.129778
2023/06/22 08:00:31.733, True, 1.685, 0.125811
2023/06/22 08:00:32.237, True, 1.658, 0.128176
2023/06/22 08:00:32.741, True, 1.658, 0.127565
2023/06/22 08:00:33.237, True, 1.685, 0.127413
2023/06/22 08:00:33.741, True, 1.658, 0.128710
2023/06/22 08:00:34.245, True, 1.658, 0.125963
2023/06/22 08:00:34.741, True, 1.685, 0.125505
2023/06/22 08:00:35.244, True, 1.658, 0.126955
2023/06/22 08:00:35.749, True, 1.657, 0.123293
2023/06/22 08:00:36.245, True, 1.688, 0.126497
2023/06/22 08:00:36.749, True, 1.655, 0.127337
2023/06/22 08:00:37.253, True, 1.658, 0.127184
2023/06/22 08:00:37.749, True, 1.685, 0.126116
2023/06/22 08:00:38.253, True, 1.989, 0.127565
2023/06/22 08:00:38.757, True, 1.658, 0.129397
2023/06/22 08:00:39.253, True, 1.685, 0.128710
2023/06/22 08:00:39.757, True, 1.658, 0.126040
2023/06/22 08:00:40.253, True, 1.684, 0.130541
2023/06/22 08:00:40.757, True, 1.658, 0.127260
2023/06/22 08:00:41.261, True, 1.658, 0.129854
2023/06/22 08:00:41.757, True, 1.684, 0.129473
2023/06/22 08:00:42.261, True, 1.990, 0.128557
2023/06/22 08:00:42.765, True, 1.658, 0.130770
2023/06/22 08:00:43.261, True, 1.684, 0.130007
2023/06/22 08:00:43.765, True, 1.990, 0.132219
2023/06/22 08:00:44.269, True, 1.658, 0.131075
2023/06/22 08:00:44.765, True, 1.685, 0.132753
2023/06/22 08:00:45.269, True, 1.658, 0.130922
2023/06/22 08:00:45.773, True, 1.661, 0.131685
2023/06/22 08:00:46.269, True, 1.682, 0.133516
2023/06/22 08:00:46.773, True, 1.658, 0.133593
2023/06/22 08:00:47.269, True, 1.685, 0.133135
2023/06/22 08:00:47.773, True, 1.658, 0.135042
2023/06/22 08:00:48.277, True, 1.659, 0.133974
2023/06/22 08:00:48.772, True, 1.684, 0.134737
2023/06/22 08:00:49.277, True, 1.658, 0.133593
2023/06/22 08:00:49.781, True, 1.658, 0.132677
2023/06/22 08:00:50.276, True, 1.685, 0.134279
2023/06/22 08:00:50.781, True, 1.658, 0.136034
2023/06/22 08:00:51.277, True, 1.685, 0.134813
2023/06/22 08:00:51.781, True, 1.990, 0.136034
2023/06/22 08:00:52.285, True, 1.658, 0.136110
2023/06/22 08:00:52.781, True, 1.685, 0.136873
2023/06/22 08:00:53.285, True, 1.658, 0.135729
2023/06/22 08:00:53.789, True, 1.990, 0.139162
2023/06/22 08:00:54.285, True, 1.684, 0.137484
2023/06/22 08:00:54.789, True, 1.326, 0.136797
2023/06/22 08:00:55.293, True, 1.660, 0.137484
2023/06/22 08:00:55.789, True, 1.683, 0.137102
2023/06/22 08:00:56.293, True, 1.658, 0.136873
2023/06/22 08:00:56.797, True, 1.658, 0.136110
2023/06/22 08:00:57.293, True, 1.685, 0.140536
2023/06/22 08:00:57.797, True, 1.989, 0.138094
2023/06/22 08:00:58.301, True, 1.658, 0.137102
2023/06/22 08:00:58.797, True, 1.685, 0.137026
2023/06/22 08:00:59.301, True, 1.658, 0.137407
2023/06/22 08:00:59.805, True, 1.658, 0.138628
2023/06/22 08:01:00.301, True, 1.685, 0.139010
2023/06/22 08:01:00.805, True, 1.658, 0.138476
2023/06/22 08:01:01.301, True, 1.685, 0.140154
2023/06/22 08:01:01.805, True, 1.660, 0.139010
2023/06/22 08:01:02.309, True, 1.656, 0.137865
2023/06/22 08:01:02.813, True, 1.658, 0.138323
2023/06/22 08:01:03.309, True, 1.348, 0.139849
2023/06/22 08:01:03.813, True, 1.658, 0.138094
2023/06/22 08:01:04.309, True, 1.685, 0.138399
2023/06/22 08:01:04.813, True, 1.989, 0.137713
2023/06/22 08:01:05.317, True, 1.660, 0.141146
2023/06/22 08:01:05.821, True, 1.656, 0.137636
2023/06/22 08:01:06.317, True, 1.688, 0.139391
2023/06/22 08:01:06.821, True, 1.655, 0.138705
2023/06/22 08:01:07.325, True, 1.657, 0.139315
2023/06/22 08:01:07.821, True, 1.685, 0.138781
2023/06/22 08:01:08.325, True, 1.659, 0.139544
2023/06/22 08:01:08.821, True, 1.685, 0.139773
2023/06/22 08:01:09.325, True, 1.657, 0.139925
2023/06/22 08:01:09.829, True, 1.991, 0.142061
2023/06/22 08:01:10.333, True, 1.657, 0.139925
2023/06/22 08:01:10.829, True, 1.685, 0.140154
2023/06/22 08:01:11.333, True, 1.659, 0.140154
2023/06/22 08:01:11.836, True, 1.656, 0.139162
2023/06/22 08:01:12.333, True, 1.685, 0.140764
2023/06/22 08:01:12.837, True, 1.659, 0.138628
2023/06/22 08:01:13.341, True, 1.988, 0.140383
2023/06/22 08:01:13.837, True, 1.685, 0.140536
2023/06/22 08:01:14.341, True, 1.660, 0.139239
2023/06/22 08:01:14.845, True, 1.656, 0.139086
2023/06/22 08:01:15.341, True, 2.022, 0.139773
2023/06/22 08:01:15.845, True, 1.660, 0.142061
2023/06/22 08:01:16.349, True, 1.656, 0.139925
2023/06/22 08:01:16.845, True, 1.684, 0.137865
2023/06/22 08:01:17.349, True, 1.658, 0.141222
2023/06/22 08:01:17.853, True, 1.658, 0.140917
2023/06/22 08:01:18.349, True, 1.685, 0.138781
2023/06/22 08:01:18.853, True, 1.658, 0.137713
2023/06/22 08:01:19.349, True, 1.348, 0.139162
2023/06/22 08:01:19.852, True, 1.660, 0.139620
2023/06/22 08:01:20.357, True, 1.325, 0.139696
2023/06/22 08:01:20.861, True, 1.658, 0.140612
2023/06/22 08:01:21.357, True, 1.685, 0.139620
2023/06/22 08:01:21.861, True, 1.658, 0.139315
2023/06/22 08:01:22.357, True, 1.685, 0.140688
2023/06/22 08:01:22.861, True, 1.326, 0.141833
2023/06/22 08:01:23.365, True, 1.658, 0.138247
2023/06/22 08:01:23.861, True, 1.685, 0.140230
2023/06/22 08:01:24.365, True, 1.989, 0.138933
2023/06/22 08:01:24.869, True, 1.658, 0.139925
2023/06/22 08:01:25.365, True, 1.685, 0.140612
2023/06/22 08:01:25.869, True, 1.659, 0.140612
2023/06/22 08:01:26.372, True, 1.657, 0.139467
2023/06/22 08:01:26.869, True, 1.685, 0.139315
2023/06/22 08:01:27.373, True, 1.658, 0.138170
2023/06/22 08:01:27.877, True, 1.659, 0.140154
2023/06/22 08:01:28.373, True, 1.684, 0.138781
2023/06/22 08:01:28.877, True, 1.657, 0.138857
2023/06/22 08:01:29.381, True, 1.658, 0.139162
2023/06/22 08:01:29.877, True, 1.685, 0.137560
2023/06/22 08:01:30.381, True, 1.658, 0.140536
2023/06/22 08:01:30.885, True, 1.658, 0.140459
2023/06/22 08:01:31.381, True, 1.685, 0.139620
2023/06/22 08:01:31.885, True, 1.658, 0.138323
2023/06/22 08:01:32.389, True, 1.326, 0.138705
2023/06/22 08:01:32.885, True, 2.022, 0.138323
2023/06/22 08:01:33.389, True, 1.659, 0.139239
2023/06/22 08:01:33.893, True, 1.657, 0.138552
2023/06/22 08:01:34.389, True, 1.685, 0.139773
2023/06/22 08:01:34.893, True, 1.658, 0.139315
2023/06/22 08:01:35.397, True, 1.660, 0.139467
2023/06/22 08:01:35.893, True, 1.682, 0.140688
2023/06/22 08:01:36.396, True, 1.659, 0.139086
2023/06/22 08:01:36.900, True, 1.657, 0.137865
2023/06/22 08:01:37.396, True, 2.022, 0.137713
2023/06/22 08:01:37.900, True, 1.658, 0.138933
2023/06/22 08:01:38.404, True, 1.658, 0.139315
2023/06/22 08:01:38.901, True, 1.685, 0.137713
2023/06/22 08:01:39.405, True, 1.658, 0.139849
2023/06/22 08:01:39.900, True, 1.685, 0.137484
2023/06/22 08:01:40.405, True, 1.658, 0.138552
2023/06/22 08:01:40.909, True, 1.658, 0.136950
2023/06/22 08:01:41.405, True, 1.686, 0.137407
2023/06/22 08:01:41.909, True, 1.657, 0.138247
2023/06/22 08:01:42.413, True, 1.661, 0.138323
2023/06/22 08:01:42.909, True, 1.681, 0.139162
2023/06/22 08:01:43.413, True, 1.661, 0.139849
2023/06/22 08:01:43.917, True, 1.655, 0.139773
2023/06/22 08:01:44.413, True, 1.685, 0.138781
2023/06/22 08:01:44.917, True, 1.991, 0.139391
2023/06/22 08:01:45.421, True, 1.657, 0.139391
2023/06/22 08:01:45.917, True, 1.684, 0.137942
2023/06/22 08:01:46.421, True, 1.661, 0.138399
2023/06/22 08:01:46.925, True, 1.324, 0.136492
2023/06/22 08:01:47.429, True, 1.657, 0.139696
2023/06/22 08:01:47.925, True, 1.686, 0.140078
2023/06/22 08:01:48.429, True, 1.659, 0.137407
2023/06/22 08:01:48.933, True, 1.656, 0.137789
2023/06/22 08:01:49.429, True, 1.684, 0.138476
2023/06/22 08:01:49.933, True, 1.993, 0.138705
2023/06/22 08:01:50.437, True, 1.656, 0.137636
2023/06/22 08:01:50.933, True, 1.685, 0.137789
2023/06/22 08:01:51.437, True, 1.657, 0.140993
2023/06/22 08:01:51.941, True, 1.658, 0.137407
2023/06/22 08:01:52.445, True, 1.658, 0.136263
2023/06/22 08:01:52.940, True, 1.685, 0.136034
2023/06/22 08:01:53.445, True, 1.658, 0.137636
2023/06/22 08:01:53.949, True, 1.658, 0.137331
2023/06/22 08:01:54.445, True, 1.684, 0.136492
2023/06/22 08:01:54.949, True, 1.658, 0.138323
2023/06/22 08:01:55.453, True, 1.658, 0.135805
2023/06/22 08:01:55.949, True, 1.685, 0.139086
2023/06/22 08:01:56.453, True, 1.658, 0.137255
2023/06/22 08:01:56.957, True, 1.660, 0.138628
2023/06/22 08:01:57.453, True, 1.348, 0.135653
2023/06/22 08:01:57.957, True, 1.655, 0.137484
2023/06/22 08:01:58.461, True, 1.660, 0.136034
2023/06/22 08:01:58.957, True, 1.683, 0.135424
2023/06/22 08:01:59.461, True, 1.658, 0.139162
2023/06/22 08:01:59.965, True, 1.990, 0.138399
2023/06/22 08:02:00.461, True, 1.685, 0.136339
2023/06/22 08:02:00.965, True, 1.326, 0.136263
2023/06/22 08:02:01.469, True, 1.658, 0.137331
2023/06/22 08:02:01.965, True, 1.685, 0.138476
2023/06/22 08:02:02.469, True, 1.658, 0.139467
2023/06/22 08:02:02.973, True, 1.658, 0.138552
2023/06/22 08:02:03.469, True, 1.685, 0.136339
2023/06/22 08:02:03.973, True, 1.658, 0.137331
2023/06/22 08:02:04.477, True, 1.658, 0.137331
2023/06/22 08:02:04.981, True, 1.658, 0.136797
2023/06/22 08:02:05.477, True, 1.348, 0.134966
2023/06/22 08:02:05.981, True, 1.659, 0.135805
2023/06/22 08:02:06.485, True, 1.989, 0.136645
2023/06/22 08:02:06.981, True, 1.685, 0.136568
2023/06/22 08:02:07.485, True, 1.658, 0.137102
2023/06/22 08:02:07.989, True, 1.658, 0.137179
2023/06/22 08:02:08.485, True, 1.685, 0.138323
2023/06/22 08:02:08.989, True, 1.658, 0.136873
2023/06/22 08:02:09.493, True, 1.660, 0.135348
2023/06/22 08:02:09.989, True, 1.682, 0.137026
2023/06/22 08:02:10.493, True, 1.661, 0.138476
2023/06/22 08:02:10.997, True, 1.987, 0.137255
2023/06/22 08:02:11.493, True, 1.347, 0.137942
2023/06/22 08:02:11.997, True, 1.658, 0.138857
2023/06/22 08:02:12.501, True, 1.989, 0.136492
2023/06/22 08:02:12.997, True, 1.685, 0.138933
2023/06/22 08:02:13.501, True, 1.657, 0.138628
2023/06/22 08:02:14.005, True, 1.658, 0.137255
2023/06/22 08:02:14.501, True, 1.685, 0.135500
2023/06/22 08:02:15.005, True, 1.658, 0.138170
2023/06/22 08:02:15.509, True, 1.658, 0.137102
2023/06/22 08:02:16.005, True, 1.348, 0.135653
2023/06/22 08:02:16.509, True, 1.989, 0.136568
2023/06/22 08:02:17.013, True, 1.658, 0.135805
2023/06/22 08:02:17.509, True, 1.685, 0.135958
2023/06/22 08:02:18.013, True, 1.658, 0.136492
2023/06/22 08:02:18.517, True, 1.658, 0.137789
2023/06/22 08:02:19.013, True, 2.022, 0.137102
2023/06/22 08:02:19.517, True, 1.658, 0.135500
2023/06/22 08:02:20.021, True, 1.658, 0.135958
2023/06/22 08:02:20.517, True, 1.685, 0.135653
2023/06/22 08:02:21.021, True, 1.658, 0.137255
2023/06/22 08:02:21.525, True, 1.658, 0.137102
2023/06/22 08:02:22.021, True, 1.687, 0.135882
2023/06/22 08:02:22.525, True, 1.656, 0.136263
2023/06/22 08:02:23.029, True, 1.990, 0.136339
2023/06/22 08:02:23.525, True, 1.348, 0.136187
2023/06/22 08:02:24.029, True, 1.990, 0.134737
2023/06/22 08:02:24.533, True, 1.658, 0.135195
2023/06/22 08:02:25.029, True, 1.684, 0.136339
2023/06/22 08:02:25.533, True, 1.658, 0.135882
2023/06/22 08:02:26.037, True, 1.659, 0.135805
2023/06/22 08:02:26.533, True, 1.684, 0.135576
2023/06/22 08:02:27.037, True, 1.659, 0.136492
2023/06/22 08:02:27.541, True, 1.326, 0.135576
2023/06/22 08:02:28.037, True, 1.684, 0.135576
2023/06/22 08:02:28.540, True, 1.658, 0.135348
2023/06/22 08:02:29.045, True, 1.658, 0.136187
2023/06/22 08:02:29.549, True, 1.990, 0.137255
2023/06/22 08:02:30.045, True, 1.685, 0.135042
2023/06/22 08:02:30.549, True, 1.659, 0.136034
2023/06/22 08:02:31.045, True, 1.684, 0.135424
2023/06/22 08:02:31.549, True, 1.658, 0.136110
2023/06/22 08:02:32.053, True, 1.658, 0.138018
2023/06/22 08:02:32.549, True, 1.685, 0.135424
2023/06/22 08:02:33.052, True, 1.658, 0.134737
2023/06/22 08:02:33.557, True, 1.658, 0.136110
2023/06/22 08:02:34.052, True, 1.685, 0.134203
2023/06/22 08:02:34.557, True, 1.658, 0.137255
2023/06/22 08:02:35.061, True, 1.658, 0.137942
2023/06/22 08:02:35.557, True, 1.685, 0.136034
2023/06/22 08:02:36.061, True, 1.990, 0.135500
2023/06/22 08:02:36.565, True, 1.658, 0.133974
2023/06/22 08:02:37.061, True, 1.685, 0.137407
2023/06/22 08:02:37.565, True, 1.327, 0.133593
2023/06/22 08:02:38.069, True, 1.657, 0.137407
2023/06/22 08:02:38.565, True, 1.685, 0.135195
2023/06/22 08:02:39.068, True, 1.658, 0.135424
2023/06/22 08:02:39.565, True, 1.685, 0.136873
2023/06/22 08:02:40.069, True, 1.658, 0.135729
2023/06/22 08:02:40.573, True, 1.658, 0.136339
2023/06/22 08:02:41.077, True, 1.658, 0.134737
2023/06/22 08:02:41.573, True, 1.685, 0.134661
2023/06/22 08:02:42.076, True, 1.658, 0.134661
2023/06/22 08:02:42.581, True, 1.326, 0.136873
2023/06/22 08:02:43.077, True, 1.685, 0.135424
2023/06/22 08:02:43.581, True, 1.658, 0.136416
2023/06/22 08:02:44.085, True, 1.658, 0.136873
2023/06/22 08:02:44.581, True, 1.685, 0.136034
2023/06/22 08:02:45.085, True, 1.658, 0.134585
2023/06/22 08:02:45.589, True, 1.658, 0.136721
2023/06/22 08:02:46.085, True, 2.021, 0.135500
2023/06/22 08:02:46.589, True, 1.658, 0.134432
2023/06/22 08:02:47.093, True, 1.658, 0.134737
2023/06/22 08:02:47.589, True, 1.685, 0.136568
2023/06/22 08:02:48.093, True, 1.658, 0.135348
2023/06/22 08:02:48.597, True, 1.658, 0.132448
2023/06/22 08:02:49.093, True, 1.685, 0.133593
2023/06/22 08:02:49.597, True, 1.658, 0.132372
2023/06/22 08:02:50.101, True, 1.658, 0.135348
2023/06/22 08:02:50.597, True, 1.685, 0.135042
2023/06/22 08:02:51.101, True, 1.990, 0.135576
2023/06/22 08:02:51.605, True, 1.658, 0.136339
2023/06/22 08:02:52.101, True, 1.684, 0.133288
2023/06/22 08:02:52.605, True, 1.658, 0.136187
2023/06/22 08:02:53.108, True, 1.658, 0.135119
2023/06/22 08:02:53.605, True, 1.685, 0.133898
2023/06/22 08:02:54.109, True, 1.990, 0.136110
2023/06/22 08:02:54.613, True, 1.658, 0.134890
2023/06/22 08:02:55.109, True, 1.685, 0.136492
2023/06/22 08:02:55.613, True, 1.990, 0.133974
2023/06/22 08:02:56.117, True, 1.658, 0.135348
2023/06/22 08:02:56.613, True, 1.684, 0.134813
2023/06/22 08:02:57.117, True, 1.658, 0.135119
2023/06/22 08:02:57.621, True, 1.658, 0.133822
2023/06/22 08:02:58.117, True, 1.349, 0.134737
2023/06/22 08:02:58.621, True, 1.657, 0.133745
2023/06/22 08:02:59.124, True, 1.990, 0.132296
2023/06/22 08:02:59.621, True, 1.684, 0.133974
2023/06/22 08:03:00.124, True, 1.659, 0.135576
2023/06/22 08:03:00.629, True, 1.656, 0.134661
2023/06/22 08:03:01.125, True, 1.685, 0.133745
2023/06/22 08:03:01.629, True, 1.658, 0.133669
2023/06/22 08:03:02.133, True, 1.658, 0.134203
2023/06/22 08:03:02.628, True, 1.347, 0.134966
2023/06/22 08:03:03.133, True, 1.658, 0.134890
2023/06/22 08:03:03.637, True, 1.326, 0.132753
2023/06/22 08:03:04.140, True, 1.658, 0.133898
2023/06/22 08:03:04.636, True, 1.685, 0.135653
2023/06/22 08:03:05.141, True, 1.658, 0.133440
2023/06/22 08:03:05.637, True, 1.684, 0.134813
2023/06/22 08:03:06.140, True, 1.658, 0.134203
2023/06/22 08:03:06.645, True, 1.658, 0.134813
2023/06/22 08:03:07.141, True, 1.684, 0.136339
2023/06/22 08:03:07.645, True, 1.658, 0.133898
2023/06/22 08:03:08.149, True, 1.658, 0.136187
2023/06/22 08:03:08.653, True, 1.657, 0.130617
2023/06/22 08:03:09.149, True, 1.685, 0.133898
2023/06/22 08:03:09.653, True, 1.658, 0.134356
2023/06/22 08:03:10.156, True, 1.658, 0.133059
2023/06/22 08:03:10.653, True, 1.685, 0.133364
2023/06/22 08:03:11.157, True, 1.659, 0.134661
2023/06/22 08:03:11.661, True, 1.990, 0.133059
2023/06/22 08:03:12.157, True, 1.686, 0.134508
2023/06/22 08:03:12.660, True, 1.324, 0.134279
2023/06/22 08:03:13.165, True, 1.658, 0.135042
2023/06/22 08:03:13.668, True, 1.661, 0.132830
2023/06/22 08:03:14.165, True, 1.684, 0.134356
2023/06/22 08:03:14.669, True, 1.324, 0.134279
2023/06/22 08:03:15.173, True, 1.659, 0.134661
2023/06/22 08:03:15.668, True, 1.686, 0.130541
2023/06/22 08:03:16.173, True, 1.656, 0.136110
2023/06/22 08:03:16.677, True, 1.660, 0.134203
2023/06/22 08:03:17.173, True, 1.348, 0.132372
2023/06/22 08:03:17.677, True, 1.658, 0.131609
2023/06/22 08:03:18.181, True, 1.656, 0.134585
2023/06/22 08:03:18.677, True, 1.688, 0.131685
2023/06/22 08:03:19.181, True, 1.656, 0.136034
2023/06/22 08:03:19.685, True, 1.989, 0.134432
2023/06/22 08:03:20.189, True, 1.660, 0.134890
2023/06/22 08:03:20.684, True, 1.686, 0.131228
2023/06/22 08:03:21.189, True, 1.655, 0.135882
2023/06/22 08:03:21.693, True, 1.658, 0.132677
2023/06/22 08:03:22.189, True, 1.685, 0.134203
2023/06/22 08:03:22.693, True, 1.657, 0.132906
2023/06/22 08:03:23.197, True, 1.661, 0.133822
2023/06/22 08:03:23.693, True, 1.682, 0.133440
2023/06/22 08:03:24.197, True, 1.657, 0.131533
2023/06/22 08:03:24.701, True, 1.991, 0.131456
2023/06/22 08:03:25.197, True, 1.685, 0.132982
2023/06/22 08:03:25.701, True, 1.657, 0.134737
2023/06/22 08:03:26.205, True, 1.990, 0.132906
2023/06/22 08:03:26.701, True, 1.685, 0.133211
2023/06/22 08:03:27.205, True, 1.658, 0.133822
2023/06/22 08:03:27.708, True, 1.326, 0.133440
2023/06/22 08:03:28.213, True, 1.658, 0.134661
2023/06/22 08:03:28.709, True, 1.685, 0.135195
2023/06/22 08:03:29.213, True, 1.660, 0.133593
2023/06/22 08:03:29.709, True, 1.683, 0.135348
2023/06/22 08:03:30.213, True, 1.990, 0.133669
2023/06/22 08:03:30.717, True, 1.659, 0.130770
2023/06/22 08:03:31.213, True, 1.686, 0.133974
2023/06/22 08:03:31.717, True, 1.655, 0.134127
2023/06/22 08:03:32.221, True, 1.658, 0.133288
2023/06/22 08:03:32.717, True, 1.687, 0.130999
2023/06/22 08:03:33.221, True, 1.987, 0.133516
2023/06/22 08:03:33.725, True, 1.658, 0.132067
2023/06/22 08:03:34.220, True, 1.685, 0.132601
2023/06/22 08:03:34.725, True, 1.658, 0.131762
2023/06/22 08:03:35.229, True, 1.658, 0.132372
2023/06/22 08:03:35.725, True, 1.686, 0.132753
2023/06/22 08:03:36.229, True, 1.657, 0.131456
2023/06/22 08:03:36.733, True, 1.658, 0.133745
2023/06/22 08:03:37.229, True, 1.348, 0.130388
2023/06/22 08:03:37.733, True, 1.990, 0.131380
2023/06/22 08:03:38.237, True, 1.658, 0.133898
2023/06/22 08:03:38.733, True, 1.348, 0.132296
2023/06/22 08:03:39.237, True, 1.989, 0.132296
2023/06/22 08:03:39.741, True, 1.658, 0.133211
2023/06/22 08:03:40.237, True, 1.685, 0.133593
2023/06/22 08:03:40.741, True, 1.659, 0.133211
2023/06/22 08:03:41.245, True, 1.657, 0.133898
2023/06/22 08:03:41.741, True, 1.685, 0.132906
2023/06/22 08:03:42.245, True, 1.658, 0.133364
2023/06/22 08:03:42.749, True, 1.658, 0.134356
2023/06/22 08:03:43.244, True, 1.685, 0.132448
2023/06/22 08:03:43.749, True, 1.658, 0.133669
2023/06/22 08:03:44.253, True, 1.658, 0.133135
2023/06/22 08:03:44.749, True, 1.685, 0.132906
2023/06/22 08:03:45.253, True, 1.658, 0.130770
2023/06/22 08:03:45.748, True, 1.686, 0.131151
2023/06/22 08:03:46.253, True, 1.657, 0.132296
2023/06/22 08:03:46.757, True, 1.658, 0.131075
2023/06/22 08:03:47.253, True, 1.348, 0.134356
2023/06/22 08:03:47.757, True, 1.658, 0.132219
2023/06/22 08:03:48.261, True, 1.658, 0.134127
2023/06/22 08:03:48.757, True, 1.687, 0.131075
2023/06/22 08:03:49.261, True, 1.656, 0.131380
2023/06/22 08:03:49.765, True, 1.658, 0.131685
2023/06/22 08:03:50.261, True, 1.685, 0.131151
2023/06/22 08:03:50.765, True, 1.658, 0.131533
2023/06/22 08:03:51.269, True, 1.658, 0.133898
2023/06/22 08:03:51.765, True, 1.349, 0.132753
2023/06/22 08:03:52.269, True, 1.656, 0.133593
2023/06/22 08:03:52.773, True, 1.658, 0.130541
2023/06/22 08:03:53.269, True, 1.685, 0.130999
2023/06/22 08:03:53.773, True, 1.658, 0.131762
2023/06/22 08:03:54.277, True, 1.659, 0.132143
2023/06/22 08:03:54.781, True, 1.657, 0.133516
2023/06/22 08:03:55.277, True, 1.685, 0.133288
2023/06/22 08:03:55.781, True, 1.658, 0.132372
2023/06/22 08:03:56.277, True, 1.685, 0.133516
2023/06/22 08:03:56.781, True, 1.989, 0.133135
2023/06/22 08:03:57.285, True, 1.658, 0.132448
2023/06/22 08:03:57.781, True, 1.685, 0.133135
2023/06/22 08:03:58.285, True, 1.658, 0.132296
2023/06/22 08:03:58.789, True, 1.658, 0.132067
2023/06/22 08:03:59.285, True, 1.688, 0.132525
2023/06/22 08:03:59.789, True, 1.655, 0.130999
2023/06/22 08:04:00.293, True, 1.658, 0.130999
2023/06/22 08:04:00.797, True, 1.658, 0.132219
2023/06/22 08:04:01.293, True, 1.685, 0.132830
2023/06/22 08:04:01.797, True, 1.658, 0.133135
2023/06/22 08:04:02.301, True, 1.659, 0.133822
2023/06/22 08:04:02.797, True, 1.684, 0.132448
2023/06/22 08:04:03.301, True, 1.658, 0.130007
2023/06/22 08:04:03.797, True, 1.685, 0.131304
2023/06/22 08:04:04.301, True, 1.658, 0.130694
2023/06/22 08:04:04.805, True, 1.658, 0.133211
2023/06/22 08:04:05.301, True, 1.685, 0.132677
2023/06/22 08:04:05.805, True, 1.993, 0.130541
2023/06/22 08:04:06.309, True, 1.655, 0.131762
2023/06/22 08:04:06.813, True, 1.658, 0.132906
2023/06/22 08:04:07.309, True, 1.685, 0.132830
2023/06/22 08:04:07.813, True, 1.660, 0.135042
2023/06/22 08:04:08.317, True, 1.656, 0.131685
2023/06/22 08:04:08.813, True, 1.685, 0.131685
2023/06/22 08:04:09.316, True, 1.658, 0.130465
2023/06/22 08:04:09.821, True, 1.658, 0.129702
2023/06/22 08:04:10.317, True, 1.685, 0.132372
2023/06/22 08:04:10.821, True, 1.658, 0.133135
2023/06/22 08:04:11.325, True, 1.659, 0.130846